[[{"header":{"parameterUnit":"m.s-1","parameterCategory":1,"la1":30.2991,"la2":30.254,"lo1":-89.0895,"lo2":-89.0444,"dy":0.0017,"dx":0.0017,"nx":28,"ny":28,"refTime":"2025-04-19T03:00:00:Z","depth":0,"parameterNumber":2,"parameterNumberName":"U-component_of_WINDS"},"data":[0,0,0,0,0,0,0,0,0,0,0,0,0,0,0,0,0,0,0,0,0,0,0,0,0,0,0,0,0,0,0,0,0,0,0,0,0,0,0,0,0,0,0,0,0,0,0,0,0,0,0,0,0,0,0,0,0,0,-5.0339,-5.034,0,-5.0403,-5.0403,-5.0404,-5.035,-5.0348,-5.0346,-5.0344,-5.0406,-5.041,-5.0413,0,0,0,0,0,0,0,0,0,0,0,0,0,-5.0169,-5.0172,-5.0339,-5.034,-5.0341,-5.0402,-5.0403,-5.0404,-5.0351,-5.0348,-5.0345,-5.0343,-5.0405,-5.0409,-5.0414,0,0,0,0,0,0,0,0,0,0,0,0,0,-5.0239,-5.0173,-5.0339,-5.0321,-5.0321,-5.0402,-5.0403,-5.0404,-5.0351,-5.0348,-5.0345,-5.0341,-5.0403,-5.0409,-5.0414,-5.0516,0,0,-5.0432,-5.0434,0,0,0,0,0,0,0,0,-5.0235,-5.0245,-5.0323,-5.0323,-5.0322,-5.0365,-5.0366,-5.0442,-5.0352,-5.034,-5.0344,-5.034,-5.0395,-5.0401,-5.042,-5.0519,-5.0521,-5.0432,-5.0435,-5.0438,-5.0439,0,0,0,0,0,0,0,-5.023,-5.0242,-5.0364,-5.0324,-5.0324,-5.031,-5.0316,-5.038,-5.0385,-5.034,-5.0337,-5.0345,-5.0394,-5.0415,-5.0421,-5.0522,-5.0432,-5.0437,-5.044,-5.0442,-5.0706,-5.0709,0,0,0,0,0,0,-5.0227,-5.0238,-5.0362,-5.0366,-5.0269,-5.0315,-5.0322,-5.0355,-5.0384,-5.0386,-5.0348,-5.0342,-5.0407,-5.0415,-5.0423,-5.0542,-5.0438,-5.0443,-5.0446,-5.0702,-5.0707,-5.071,0,0,0,0,0,0,-5.0224,-5.0239,-5.0359,-5.0301,-5.0315,-5.0322,-5.0359,-5.0358,-5.0378,-5.039,-5.039,-5.0369,-5.0405,-5.0415,-5.0493,-5.0544,-5.0446,-5.0451,-5.0698,-5.0703,-5.0709,-5.0782,0,0,0,0,0,0,-5.0219,-5.0238,-5.0277,-5.0302,-5.0319,-5.0429,-5.0362,-5.0361,-5.0389,-5.0382,-5.0409,-5.0411,-5.0403,-5.0485,-5.0499,-5.055,-5.0455,-5.0693,-5.07,-5.0707,-5.0775,-5.079,-5.0802,0,0,0,0,0,-5.0213,-5.0295,-5.0279,-5.0294,-5.0368,-5.0432,-5.0441,-5.0431,-5.0393,-5.0432,-5.0439,-5.041,-5.0537,-5.0493,-5.0508,-5.0562,-5.069,-5.0698,-5.0706,-5.0769,-5.0787,-5.0802,0,0,0,0,0,0,-5.0274,-5.0298,-5.0281,-5.0373,-5.0401,-5.0423,-5.0471,-5.045,-5.0489,-5.0481,-5.0467,-5.0473,-5.0555,-5.0566,-5.0518,-5.0661,-5.0607,-5.0619,-5.065,-5.0667,-5.068,-5.0674,-5.046,0,0,0,0,0,-5.0299,-5.035,-5.0368,-5.0447,-5.0463,-5.0465,-5.0493,-5.0483,-5.0511,-5.0522,-5.0535,-5.0562,-5.0608,-5.0638,-5.0681,-5.0778,-5.0782,-5.0822,-5.0835,-5.0846,-5.0855,-5.0906,-5.0923,-5.0737,-5.0737,-5.0737,0,0,-5.0349,-5.0369,-5.0401,-5.046,-5.0481,-5.0533,-5.0475,-5.0533,-5.0571,-5.053,-5.0604,-5.0615,-5.0644,-5.0732,-5.0771,-5.0744,-5.0908,-5.0857,-5.0865,-5.0869,-5.0916,-5.0933,-5.0949,-5.0743,-5.0742,-5.0741,0,0,-5.0467,-5.0488,-5.0556,-5.0578,-5.061,-5.0611,-5.0628,-5.0653,-5.0659,-5.0733,-5.0704,-5.0749,-5.0828,-5.085,-5.0872,-5.0999,-5.0973,-5.1014,-5.1082,-5.1131,-5.1146,-5.1159,-5.1202,-5.1218,-5.1024,-5.1024,-5.1024,0,-5.0526,-5.0604,-5.0594,-5.0654,-5.068,-5.0647,-5.0715,-5.0737,-5.0781,-5.0799,-5.0769,-5.0868,-5.0886,-5.0977,-5.1008,-5.1027,-5.1044,-5.1009,-5.1145,-5.1158,-5.117,-5.1211,-5.1227,-5.1029,-5.1028,-5.1028,-5.1027,0,-5.0673,-5.0727,-5.0779,-5.0823,-5.0855,-5.0919,-5.0917,-5.0951,-5.0939,-5.0943,-5.1019,-5.1039,-5.1085,-5.1107,-5.1095,-5.1196,-5.1178,-5.1147,-5.1092,-5.1192,-5.123,-5.1246,-5.1035,-5.1033,-5.1032,-5.1031,0,0,-5.0829,-5.0868,-5.0886,-5.0905,-5.0939,-5.098,-5.1043,-5.1088,-5.1117,-5.1149,-5.1199,-5.1268,-5.1239,-5.1264,-5.1255,-5.1299,-5.1396,-5.1262,-5.1262,-5.1284,-5.1506,-5.1527,-5.1546,-5.138,-5.1383,-5.1386,-5.1503,0,-5.0947,-5.1055,-5.1048,-5.115,-5.1199,-5.1169,-5.1223,-5.1249,-5.1255,-5.1297,-5.1303,-5.1351,-5.1311,-5.1326,-5.1368,-5.1375,-5.144,-5.1367,-5.1425,-5.1427,-5.1416,-5.1566,-5.1589,-5.1699,-5.1518,-5.1521,-5.1522,0,-5.1098,-5.1136,-5.1243,-5.1268,-5.1288,-5.1337,-5.1378,-5.1419,-5.1448,-5.1449,-5.1477,-5.1461,-5.1522,-5.1468,-5.1552,-5.1502,-5.1526,-5.1533,-5.1537,-5.154,-5.1479,-5.1571,-5.1734,-5.1749,-5.1546,-5.1544,-5.1543,0,-5.1199,-5.1276,-5.135,-5.1368,-5.14,-5.1434,-5.1449,-5.1474,-5.1502,-5.1538,-5.1556,-5.1599,-5.1621,-5.1654,-5.165,-5.1611,-5.1734,-5.168,-5.1735,-5.1735,-5.176,-5.1758,-5.1927,-5.178,-5.178,-5.178,-5.1779,0,-5.1329,-5.1395,-5.1395,-5.144,-5.1513,-5.1504,-5.1576,-5.1587,-5.161,-5.1655,-5.1633,-5.1676,-5.1669,-5.1712,-5.1709,-5.1777,-5.1788,-5.179,-5.1787,-5.179,-5.179,-5.1803,-5.1795,-5.1784,-5.1783,-5.1782,-5.1781,0,-5.1453,-5.1456,-5.1533,-5.1558,-5.1566,-5.1618,-5.1638,-5.168,-5.1685,-5.1743,-5.1756,-5.1763,-5.1812,-5.1812,-5.1868,-5.1866,-5.1949,-5.194,-5.194,-5.1937,-5.1991,-5.1985,-5.2172,-5.2195,-5.2036,-5.2038,-5.2039,0,-5.1535,-5.1585,-5.1615,-5.1644,-5.1661,-5.1709,-5.1737,-5.1731,-5.1761,-5.1798,-5.1835,-5.1883,-5.192,-5.2,-5.201,-5.2052,-5.2042,-5.2105,-5.2048,-5.2049,-5.204,-5.2036,-5.204,-5.2115,-5.2117,-5.2118,-5.2119,0,-5.1679,-5.1678,-5.172,-5.1763,-5.1798,-5.1832,-5.1862,-5.1887,-5.1885,-5.192,-5.197,-5.2,-5.2057,-5.2104,-5.2145,-5.2159,-5.2138,-5.2138,-5.2152,-5.2154,-5.2151,-5.2151,-5.1967,-5.2132,-5.2131,-5.213,-5.2129,-5.2129,-5.1783,-5.1825,-5.1853,-5.19,-5.1923,-5.1952,-5.1992,-5.2003,-5.2045,-5.2091,-5.2086,-5.2142,-5.2168,-5.2222,-5.224,-5.2283,-5.226,-5.2282,-5.2287,-5.2292,-5.2297,-5.2147,-5.229,-5.229,-5.229,-5.2289,-5.2289,0,-5.1924,-5.194,-5.1984,-5.2028,-5.2065,-5.2045,-5.2077,-5.2109,-5.2159,-5.2186,-5.2224,-5.2282,-5.2327,-5.2341,-5.2384,-5.2416,-5.2407,-5.2427,-5.2423,-5.2427,-5.2315,-5.2297,-5.2433,-5.2433,-5.2433,-5.2433,-5.2433,-5.2433,-5.2001,-5.2072,-5.2074,-5.2155,-5.2171,-5.2226,-5.2246,-5.2273,-5.2294,-5.236,-5.2398,-5.2407,-5.2428,-5.2473,-5.2513,-5.2516,-5.2532,-5.2556,-5.2554,-5.2449,-5.2435,-5.2421,-5.2404,-5.256,-5.256,-5.2662,-5.2662,-5.2663]},{"header":{"parameterUnit":"m.s-1","parameterCategory":1,"la1":30.2991,"la2":30.254,"lo1":-89.0895,"lo2":-89.0444,"dy":0.0017,"dx":0.0017,"nx":28,"ny":28,"refTime":"2025-04-19T03:00:00:Z","depth":0,"parameterNumber":3,"parameterNumberName":"V-component_of_WINDS"},"data":[0,0,0,0,0,0,0,0,0,0,0,0,0,0,0,0,0,0,0,0,0,0,0,0,0,0,0,0,0,0,0,0,0,0,0,0,0,0,0,0,0,0,0,0,0,0,0,0,0,0,0,0,0,0,0,0,0,0,3.7055,3.7055,0,3.7093,3.7094,3.7094,3.7054,3.7052,3.7051,3.7049,3.7086,3.7088,3.7091,0,0,0,0,0,0,0,0,0,0,0,0,0,3.6944,3.6947,3.7055,3.7055,3.7056,3.7093,3.7094,3.7094,3.7054,3.7052,3.705,3.7049,3.7085,3.7088,3.7091,0,0,0,0,0,0,0,0,0,0,0,0,0,3.6989,3.6947,3.7055,3.704,3.704,3.7093,3.7094,3.7095,3.7055,3.7052,3.705,3.7048,3.7084,3.7088,3.7091,3.716,0,0,3.7102,3.7104,0,0,0,0,0,0,0,0,3.6986,3.6993,3.7042,3.7042,3.7041,3.7067,3.7068,3.7116,3.7055,3.7049,3.7049,3.7047,3.7081,3.7085,3.7097,3.7162,3.7163,3.7103,3.7105,3.7106,3.7107,0,0,0,0,0,0,0,3.6983,3.6991,3.707,3.7043,3.7042,3.7031,3.7035,3.7077,3.7077,3.7049,3.7046,3.7052,3.708,3.7094,3.7098,3.7164,3.7102,3.7106,3.7108,3.7109,3.7288,3.7291,0,0,0,0,0,0,3.6982,3.6989,3.7069,3.7071,3.7007,3.7035,3.7039,3.7061,3.7077,3.7077,3.7054,3.705,3.7089,3.7093,3.7099,3.7181,3.7106,3.711,3.7112,3.7286,3.7289,3.7291,0,0,0,0,0,0,3.698,3.699,3.7067,3.7029,3.7038,3.704,3.7064,3.7063,3.7076,3.708,3.708,3.7067,3.7087,3.7094,3.7146,3.7182,3.7111,3.7115,3.7282,3.7286,3.729,3.7346,0,0,0,0,0,0,3.6977,3.6989,3.7016,3.703,3.7041,3.7114,3.7066,3.7065,3.7083,3.7078,3.7093,3.7093,3.7086,3.714,3.7149,3.7186,3.7117,3.7279,3.7284,3.7289,3.7341,3.7352,3.736,0,0,0,0,0,3.6973,3.7029,3.7017,3.7027,3.7074,3.7116,3.7122,3.7113,3.7086,3.7112,3.7115,3.7093,3.7177,3.7146,3.7156,3.7194,3.7277,3.7283,3.7288,3.7337,3.735,3.736,0,0,0,0,0,0,3.7018,3.7031,3.7018,3.708,3.7098,3.711,3.7143,3.7127,3.7151,3.7146,3.7132,3.7136,3.7192,3.7198,3.7163,3.7262,3.7222,3.723,3.7256,3.7268,3.7277,3.7275,3.712,0,0,0,0,0,3.7035,3.7069,3.7078,3.7133,3.7142,3.7141,3.7159,3.7151,3.7168,3.7175,3.7181,3.7198,3.7228,3.7248,3.7276,3.7342,3.7345,3.7373,3.7382,3.739,3.7397,3.7433,3.7446,3.731,3.731,3.731,0,0,3.7071,3.7082,3.7104,3.7142,3.7155,3.719,3.7148,3.7186,3.7212,3.718,3.723,3.7236,3.7254,3.7313,3.734,3.732,3.7436,3.7398,3.7404,3.7407,3.7441,3.7453,3.7465,3.7314,3.7314,3.7313,0,0,3.7154,3.7166,3.7213,3.7227,3.7247,3.7246,3.7257,3.7272,3.7275,3.7325,3.7302,3.7333,3.7385,3.7398,3.7412,3.7502,3.7483,3.7512,3.7562,3.7597,3.7608,3.7617,3.765,3.7662,3.7519,3.7519,3.7519,0,3.7195,3.7248,3.7239,3.728,3.7297,3.7272,3.7319,3.7333,3.736,3.7373,3.735,3.7416,3.7426,3.7489,3.7511,3.7523,3.7535,3.751,3.7607,3.7617,3.7625,3.7656,3.7668,3.7522,3.7522,3.7522,3.7521,0,3.7299,3.7336,3.7372,3.7401,3.7422,3.7466,3.7463,3.7485,3.7475,3.7477,3.7528,3.754,3.757,3.7584,3.7574,3.7646,3.7633,3.761,3.7569,3.7642,3.7671,3.7682,3.7527,3.7526,3.7525,3.7524,0,0,3.741,3.7435,3.7448,3.7461,3.7482,3.751,3.7553,3.7584,3.7604,3.7624,3.766,3.7705,3.7684,3.7699,3.7691,3.7722,3.7793,3.7694,3.7694,3.7712,3.7873,3.7891,3.7905,3.778,3.7783,3.7784,3.7872,0,3.7495,3.757,3.7564,3.7635,3.7669,3.7646,3.7683,3.77,3.7703,3.7732,3.7734,3.7767,3.7736,3.7745,3.7775,3.7778,3.7825,3.7772,3.7813,3.7815,3.781,3.792,3.7939,3.8021,3.7883,3.7885,3.7886,0,3.7603,3.7629,3.7704,3.7721,3.7735,3.7769,3.7797,3.7825,3.7843,3.7843,3.7862,3.7848,3.7891,3.785,3.7909,3.7873,3.7889,3.7894,3.7897,3.79,3.7855,3.7927,3.8047,3.8059,3.7904,3.7902,3.7901,0,3.7678,3.7731,3.7783,3.7795,3.7816,3.784,3.785,3.7866,3.7885,3.7909,3.7922,3.795,3.7966,3.7988,3.7982,3.7953,3.8043,3.8001,3.8043,3.8044,3.8063,3.8062,3.8188,3.8074,3.8073,3.8073,3.8073,0,3.7773,3.782,3.7817,3.7849,3.7902,3.7893,3.7945,3.7951,3.7966,3.7998,3.7979,3.801,3.8001,3.8031,3.8027,3.8076,3.8083,3.8084,3.8082,3.8086,3.8086,3.8097,3.8091,3.8076,3.8076,3.8075,3.8075,0,3.7865,3.7865,3.7921,3.7936,3.7941,3.7979,3.7992,3.8022,3.8023,3.8065,3.8074,3.8076,3.8111,3.8108,3.8146,3.8143,3.8205,3.8196,3.8199,3.8198,3.824,3.8236,3.8377,3.8395,3.8269,3.827,3.8271,0,3.7926,3.7962,3.7982,3.8003,3.8014,3.8048,3.8068,3.8061,3.8083,3.8107,3.8134,3.8168,3.8194,3.825,3.8255,3.8285,3.8277,3.8324,3.8281,3.8284,3.8278,3.8276,3.828,3.8332,3.8334,3.8335,3.8336,0,3.8034,3.8033,3.8063,3.8094,3.8118,3.8142,3.8163,3.8181,3.8176,3.8201,3.8237,3.8258,3.8298,3.8331,3.836,3.8368,3.8352,3.835,3.8361,3.8365,3.8366,3.8367,3.8223,3.8346,3.8345,3.8345,3.8344,3.8344,3.8113,3.8144,3.8163,3.8198,3.8213,3.8234,3.8263,3.8269,3.8299,3.8333,3.8326,3.8367,3.8384,3.8421,3.8433,3.8464,3.8447,3.8463,3.8467,3.8472,3.8477,3.8361,3.8469,3.8469,3.8469,3.8468,3.8468,0,3.8221,3.8232,3.8264,3.8295,3.8322,3.8305,3.8328,3.8352,3.8388,3.8406,3.8433,3.8475,3.8507,3.8515,3.8546,3.857,3.8563,3.8578,3.8576,3.8579,3.849,3.8478,3.8583,3.8583,3.8583,3.8583,3.8583,3.8583,3.828,3.8332,3.8333,3.8393,3.8404,3.8445,3.8459,3.8478,3.8493,3.8541,3.8568,3.8573,3.8587,3.8619,3.8648,3.865,3.8662,3.8681,3.8679,3.8596,3.8585,3.8574,3.8562,3.8683,3.8683,3.8765,3.8766,3.8766]}]]